LGL204 HETB-ELLX

Flight info

Callsign LGL204
Flight time 4h 21m
Altitude 36000
Route GISTA DCT DATOK L550 GENIV L324 LAKTO DCT OTHON UN128 RDS UL609 MES UG18 FSK UL608 DISOR DCT UTOMO DCT SOLGU DCT MAXUR DCT UMVEG DCT KUNOD L608 TEDGO DCT PITES DCT BETEX
Aircraft B738/M-VGD/A

Departure

Time 2026-04-26 11:04
Airport Taba International Airport (HETB)

Arrival

Time 2026-04-26 15:26
Airport Luxembourg-Findel International Airport (ELLX)
Time Latitude Longitude Altitude Speed Heading
2026-04-26 10:39 29.59152 34.77642 2425 ft 0 kts 311°
2026-04-26 10:58 29.59150 34.77644 2429 ft 2 kts 311°
2026-04-26 10:58 29.59133 34.77666 2435 ft 4 kts 315°
2026-04-26 10:58 29.59112 34.77685 2438 ft 4 kts 337°
2026-04-26 10:59 29.59088 34.77689 2435 ft 4 kts 20°
2026-04-26 10:59 29.59075 34.77681 2434 ft 1 kts 41°
2026-04-26 10:59 29.59074 34.77680 2434 ft 1 kts 41°
2026-04-26 11:01 29.59101 34.77706 2437 ft 11 kts 41°
2026-04-26 11:01 29.59156 34.77795 2436 ft 17 kts 94°
2026-04-26 11:01 29.59114 34.77918 2437 ft 18 kts 69°
2026-04-26 11:02 29.59209 34.78024 2433 ft 20 kts 41°
2026-04-26 11:02 29.59320 34.78138 2433 ft 22 kts 42°
2026-04-26 11:02 29.59432 34.78252 2430 ft 21 kts 41°
2026-04-26 11:02 29.59537 34.78368 2428 ft 21 kts 65°
2026-04-26 11:03 29.59478 34.78503 2426 ft 12 kts 165°
2026-04-26 11:03 29.59454 34.78493 2427 ft 0 kts 220°
2026-04-26 11:03 29.59436 34.78474 2426 ft 21 kts 221°
2026-04-26 11:03 29.59155 34.78192 2435 ft 85 kts 221°
2026-04-26 11:04 29.58567 34.77589 2442 ft 139 kts 221°
2026-04-26 11:04 29.57738 34.76733 2570 ft 175 kts 222°
2026-04-26 11:04 29.56786 34.75760 3072 ft 192 kts 221°
2026-04-26 11:04 29.55762 34.74716 3739 ft 197 kts 222°
2026-04-26 11:05 29.54762 34.73691 4563 ft 189 kts 224°
2026-04-26 11:05 29.53779 34.72680 5132 ft 195 kts 224°
2026-04-26 11:05 29.52717 34.71587 5307 ft 214 kts 224°
2026-04-26 11:05 29.51864 34.70133 5441 ft 230 kts 256°
2026-04-26 11:06 29.51936 34.68275 5692 ft 240 kts 287°
2026-04-26 11:06 29.52295 34.67055 5881 ft 251 kts 288°
2026-04-26 11:06 29.52912 34.65088 6158 ft 268 kts 289°
2026-04-26 11:06 29.53553 34.63061 6741 ft 269 kts 289°
2026-04-26 11:07 29.54191 34.61027 6984 ft 272 kts 288°
2026-04-26 11:07 29.55031 34.58316 6992 ft 271 kts 288°
2026-04-26 11:07 29.55455 34.56936 7006 ft 271 kts 288°
2026-04-26 11:07 29.56080 34.54888 7011 ft 272 kts 288°
2026-04-26 11:08 29.56706 34.52833 7028 ft 273 kts 288°
2026-04-26 11:08 29.57331 34.50775 7013 ft 273 kts 288°
2026-04-26 11:08 29.58088 34.48780 7090 ft 276 kts 307°
2026-04-26 11:08 29.59581 34.47383 7696 ft 281 kts 324°
2026-04-26 11:09 29.61244 34.46164 8335 ft 286 kts 325°
2026-04-26 11:09 29.62911 34.44957 8998 ft 288 kts 325°
2026-04-26 11:09 29.64623 34.43719 9599 ft 293 kts 325°
2026-04-26 11:09 29.66361 34.42455 10172 ft 299 kts 324°
2026-04-26 11:10 29.68172 34.41130 10341 ft 319 kts 324°
2026-04-26 11:10 29.70096 34.39716 10500 ft 337 kts 325°
2026-04-26 11:10 29.72129 34.38220 10645 ft 356 kts 325°
2026-04-26 11:10 29.74259 34.36651 10909 ft 368 kts 324°
2026-04-26 11:11 29.76430 34.35052 11411 ft 372 kts 324°
2026-04-26 11:11 29.78617 34.33441 11975 ft 375 kts 324°
2026-04-26 11:11 29.80826 34.31810 12507 ft 378 kts 324°
2026-04-26 11:11 29.83051 34.30168 13147 ft 379 kts 324°
2026-04-26 11:12 29.85281 34.28519 13738 ft 383 kts 324°
2026-04-26 11:12 29.87514 34.26866 14177 ft 389 kts 323°
2026-04-26 11:12 29.89799 34.25172 14713 ft 392 kts 323°
2026-04-26 11:12 29.92101 34.23466 15284 ft 395 kts 323°
2026-04-26 11:13 29.94423 34.21744 15826 ft 398 kts 323°
2026-04-26 11:13 29.96766 34.20005 16379 ft 402 kts 323°
2026-04-26 11:13 29.99129 34.18250 16920 ft 405 kts 323°
2026-04-26 11:13 30.01507 34.16484 17465 ft 408 kts 323°
2026-04-26 11:14 30.03906 34.14700 17980 ft 412 kts 323°
2026-04-26 11:14 30.06325 34.12901 18455 ft 415 kts 323°
2026-04-26 11:14 30.08764 34.11086 18957 ft 417 kts 323°
2026-04-26 11:14 30.11207 34.09267 19472 ft 418 kts 323°
2026-04-26 11:15 30.13659 34.07441 19949 ft 421 kts 323°
2026-04-26 11:15 30.16128 34.05600 20423 ft 423 kts 323°
2026-04-26 11:15 30.18571 34.03777 20895 ft 425 kts 323°
2026-04-26 11:15 30.21062 34.01918 21356 ft 427 kts 323°
2026-04-26 11:16 30.23562 34.00050 21806 ft 429 kts 323°
2026-04-26 11:16 30.26076 33.98171 22240 ft 431 kts 323°
2026-04-26 11:16 30.28600 33.96283 22691 ft 433 kts 323°
2026-04-26 11:16 30.31139 33.94382 23117 ft 435 kts 323°
2026-04-26 11:17 30.33685 33.92476 23530 ft 437 kts 323°
2026-04-26 11:17 30.36246 33.90557 23877 ft 439 kts 322°
2026-04-26 11:17 30.38825 33.88623 24226 ft 441 kts 322°
2026-04-26 11:17 30.41408 33.86686 24572 ft 442 kts 322°
2026-04-26 11:18 30.43996 33.84742 24911 ft 444 kts 322°
2026-04-26 11:18 30.46558 33.82817 25233 ft 446 kts 322°
2026-04-26 11:18 30.49172 33.80852 25572 ft 448 kts 322°
2026-04-26 11:18 30.51787 33.78885 25905 ft 449 kts 322°
2026-04-26 11:19 30.54414 33.76908 26220 ft 451 kts 322°
2026-04-26 11:19 30.57053 33.74920 26520 ft 453 kts 322°
2026-04-26 11:19 30.59700 33.72925 26822 ft 454 kts 321°
2026-04-26 11:19 30.62361 33.70918 27112 ft 456 kts 321°
2026-04-26 11:20 30.65025 33.68908 27391 ft 458 kts 321°
2026-04-26 11:20 30.66798 33.67568 27582 ft 459 kts 321°
2026-04-26 11:20 30.70353 33.64883 27957 ft 461 kts 321°
2026-04-26 11:20 30.73078 33.62822 28222 ft 462 kts 321°
2026-04-26 11:21 30.75744 33.60804 28471 ft 464 kts 321°
2026-04-26 11:21 30.78451 33.58755 28799 ft 464 kts 321°
2026-04-26 11:21 30.81148 33.56713 29248 ft 461 kts 321°
2026-04-26 11:21 30.83830 33.54682 29710 ft 458 kts 321°
2026-04-26 11:22 30.86498 33.52659 30080 ft 457 kts 321°
2026-04-26 11:22 30.89166 33.50633 30358 ft 457 kts 320°
2026-04-26 11:22 30.91829 33.48610 30687 ft 455 kts 320°
2026-04-26 11:22 30.94479 33.46595 31032 ft 453 kts 320°
2026-04-26 11:23 30.97111 33.44592 31350 ft 452 kts 320°
2026-04-26 11:23 30.99743 33.42588 31659 ft 450 kts 320°
2026-04-26 11:23 31.02367 33.40589 31987 ft 449 kts 320°
2026-04-26 11:23 31.04976 33.38600 32291 ft 447 kts 320°
2026-04-26 11:24 31.07547 33.36638 32569 ft 447 kts 320°
2026-04-26 11:24 31.10145 33.34655 32875 ft 445 kts 320°
2026-04-26 11:24 31.12737 33.32674 33192 ft 444 kts 320°
2026-04-26 11:24 31.15315 33.30703 33476 ft 442 kts 320°
2026-04-26 11:25 31.17885 33.28737 33730 ft 442 kts 320°
2026-04-26 11:25 31.20461 33.26765 33978 ft 441 kts 319°
2026-04-26 11:25 31.23028 33.24798 34227 ft 440 kts 319°
2026-04-26 11:25 31.25585 33.22837 34433 ft 439 kts 319°
2026-04-26 11:26 31.28140 33.20877 34607 ft 439 kts 319°
2026-04-26 11:26 31.30699 33.18913 34791 ft 439 kts 319°
2026-04-26 11:26 31.33234 33.17002 34992 ft 441 kts 323°
2026-04-26 11:26 31.36078 33.15438 35186 ft 451 kts 332°
2026-04-26 11:27 31.39067 33.14389 35359 ft 459 kts 340°
2026-04-26 11:27 31.42267 33.13851 35495 ft 470 kts 348°
2026-04-26 11:27 31.45542 33.13671 35657 ft 472 kts 350°
2026-04-26 11:27 31.48833 33.13567 35825 ft 472 kts 351°
2026-04-26 11:28 31.52118 33.13470 35959 ft 472 kts 350°
2026-04-26 11:28 31.55412 33.13350 35960 ft 475 kts 350°
2026-04-26 11:28 31.62047 33.13045 35980 ft 478 kts 349°
2026-04-26 11:29 31.68714 33.12708 35979 ft 481 kts 349°
2026-04-26 11:29 31.75373 33.12374 35975 ft 482 kts 349°
2026-04-26 11:30 31.78633 33.11774 35951 ft 466 kts 334°
2026-04-26 11:30 31.80649 33.10866 35983 ft 455 kts 326°
2026-04-26 11:30 31.84107 33.08251 35966 ft 438 kts 310°
2026-04-26 11:30 31.86201 33.05711 35988 ft 431 kts 306°
2026-04-26 11:31 31.90278 33.00513 35970 ft 432 kts 306°
2026-04-26 11:31 31.94380 32.95337 35964 ft 432 kts 306°
2026-04-26 11:32 31.98500 32.90178 35965 ft 431 kts 306°
2026-04-26 11:32 32.02591 32.85065 35964 ft 431 kts 306°
2026-04-26 11:33 32.06699 32.79924 35967 ft 430 kts 306°
2026-04-26 11:33 32.10796 32.74788 35966 ft 430 kts 306°
2026-04-26 11:34 32.14886 32.69652 35965 ft 429 kts 306°
2026-04-26 11:34 32.18976 32.64509 35964 ft 429 kts 306°
2026-04-26 11:35 32.23052 32.59377 35968 ft 429 kts 306°
2026-04-26 11:35 32.26447 32.55096 35966 ft 429 kts 306°
2026-04-26 11:36 32.31224 32.49064 35970 ft 429 kts 306°
2026-04-26 11:36 32.35278 32.43938 35969 ft 429 kts 306°
2026-04-26 11:37 32.39361 32.38768 35968 ft 430 kts 306°
2026-04-26 11:37 32.43446 32.33586 35971 ft 431 kts 306°
2026-04-26 11:38 32.47546 32.28379 35970 ft 432 kts 306°
2026-04-26 11:38 32.51647 32.23164 35974 ft 433 kts 306°
2026-04-26 11:39 32.55758 32.17928 35971 ft 434 kts 306°
2026-04-26 11:39 32.59873 32.12680 35970 ft 435 kts 306°
2026-04-26 11:40 32.63994 32.07468 35965 ft 437 kts 308°
2026-04-26 11:40 32.68418 32.02462 35970 ft 440 kts 310°
2026-04-26 11:42 32.86419 31.82602 35963 ft 443 kts 310°
2026-04-26 11:43 32.90912 31.77582 35964 ft 443 kts 310°
2026-04-26 11:43 32.95401 31.72560 35962 ft 443 kts 310°
2026-04-26 11:44 32.99899 31.67520 35960 ft 443 kts 310°
2026-04-26 11:44 33.04391 31.62480 35964 ft 443 kts 310°
2026-04-26 11:45 33.08881 31.57436 35962 ft 444 kts 311°
2026-04-26 11:45 33.13352 31.52406 35962 ft 444 kts 311°
2026-04-26 11:46 33.17852 31.47334 35966 ft 444 kts 311°
2026-04-26 11:46 33.22345 31.42264 35958 ft 444 kts 311°
2026-04-26 11:47 33.26816 31.37211 35962 ft 445 kts 311°
2026-04-26 11:47 33.31313 31.32120 35959 ft 445 kts 311°
2026-04-26 11:48 33.35812 31.27020 35956 ft 446 kts 311°
2026-04-26 11:48 33.40325 31.21897 35955 ft 447 kts 311°
2026-04-26 11:49 33.44837 31.16767 35954 ft 447 kts 311°
2026-04-26 11:49 33.49352 31.11626 35955 ft 448 kts 312°
2026-04-26 11:50 33.53846 31.06500 35953 ft 449 kts 312°
2026-04-26 11:50 33.58367 31.01336 35952 ft 449 kts 312°
2026-04-26 11:51 33.62896 30.96155 35956 ft 450 kts 312°
2026-04-26 11:51 33.67432 30.90958 35954 ft 451 kts 312°
2026-04-26 11:52 33.71205 30.86630 35956 ft 451 kts 312°
2026-04-26 11:52 33.75754 30.81404 35951 ft 452 kts 312°
2026-04-26 11:53 33.80308 30.76164 35945 ft 453 kts 313°
2026-04-26 11:54 33.87114 30.68317 35950 ft 454 kts 313°
2026-04-26 11:54 33.91672 30.63052 35947 ft 454 kts 313°
2026-04-26 11:55 33.96234 30.57774 35944 ft 454 kts 313°
2026-04-26 11:55 34.00791 30.52494 35944 ft 454 kts 313°
2026-04-26 11:56 34.05350 30.47203 35945 ft 455 kts 313°
2026-04-26 11:56 34.09880 30.41936 35942 ft 455 kts 313°
2026-04-26 11:57 34.14435 30.36634 35941 ft 455 kts 313°
2026-04-26 11:57 34.18992 30.31320 35945 ft 455 kts 313°
2026-04-26 11:58 34.23541 30.26007 35943 ft 455 kts 313°
2026-04-26 11:58 34.28093 30.20681 35944 ft 455 kts 313°
2026-04-26 11:59 34.32652 30.15340 35938 ft 455 kts 313°
2026-04-26 11:59 34.37175 30.10031 35939 ft 456 kts 313°
2026-04-26 12:00 34.41727 30.04680 35942 ft 456 kts 313°
2026-04-26 12:00 34.46284 29.99311 35941 ft 456 kts 313°
2026-04-26 12:01 34.50766 29.93835 35946 ft 456 kts 312°
2026-04-26 12:01 34.55199 29.88325 35943 ft 457 kts 312°
2026-04-26 12:02 34.59644 29.82809 35946 ft 457 kts 312°
2026-04-26 12:02 34.64069 29.77327 35946 ft 457 kts 312°
2026-04-26 12:03 34.68520 29.71811 35947 ft 457 kts 312°
2026-04-26 12:03 34.72979 29.66274 35943 ft 457 kts 312°
2026-04-26 12:04 34.77427 29.60742 35948 ft 457 kts 313°
2026-04-26 12:04 34.81876 29.55200 35944 ft 457 kts 313°
2026-04-26 12:05 34.86284 29.49699 35950 ft 457 kts 313°
2026-04-26 12:05 34.90723 29.44150 35950 ft 457 kts 313°
2026-04-26 12:06 34.95157 29.38598 35944 ft 457 kts 313°
2026-04-26 12:06 34.99625 29.33088 35938 ft 457 kts 317°
2026-04-26 12:07 35.04653 29.28339 35945 ft 457 kts 323°
2026-04-26 12:07 35.09799 29.23756 35947 ft 457 kts 323°
2026-04-26 12:08 35.14927 29.19140 35944 ft 458 kts 322°
2026-04-26 12:08 35.19999 29.14516 35945 ft 458 kts 322°
2026-04-26 12:09 35.25104 29.09835 35944 ft 458 kts 322°
2026-04-26 12:09 35.30211 29.05143 35943 ft 458 kts 322°
2026-04-26 12:10 35.35316 29.00448 35945 ft 458 kts 322°
2026-04-26 12:10 35.40386 28.95777 35944 ft 459 kts 322°
2026-04-26 12:11 35.45488 28.91071 35948 ft 459 kts 322°
2026-04-26 12:11 35.50595 28.86352 35945 ft 459 kts 323°
2026-04-26 12:12 35.55694 28.81632 35942 ft 459 kts 323°
2026-04-26 12:12 35.60761 28.76935 35945 ft 459 kts 323°
2026-04-26 12:13 35.65853 28.72206 35945 ft 459 kts 323°
2026-04-26 12:13 35.70949 28.67467 35944 ft 458 kts 323°
2026-04-26 12:14 35.76040 28.62724 35945 ft 458 kts 323°
2026-04-26 12:14 35.81127 28.57976 35945 ft 458 kts 323°
2026-04-26 12:15 35.86208 28.53227 35947 ft 458 kts 323°
2026-04-26 12:15 35.91257 28.48500 35944 ft 458 kts 323°
2026-04-26 12:16 35.96338 28.43734 35942 ft 457 kts 323°
2026-04-26 12:16 36.01396 28.38983 35940 ft 457 kts 323°
2026-04-26 12:17 36.06460 28.34223 35939 ft 456 kts 323°
2026-04-26 12:17 36.11479 28.29500 35932 ft 455 kts 323°
2026-04-26 12:18 36.16517 28.24750 35923 ft 455 kts 323°
2026-04-26 12:18 36.21548 28.19998 35914 ft 454 kts 323°
2026-04-26 12:19 36.26542 28.15272 35919 ft 453 kts 324°
2026-04-26 12:19 36.31584 28.10495 35911 ft 453 kts 324°
2026-04-26 12:20 36.36440 28.05573 35914 ft 454 kts 319°
2026-04-26 12:20 36.41054 28.00227 35907 ft 453 kts 318°
2026-04-26 12:21 36.45631 27.94834 35911 ft 452 kts 318°
2026-04-26 12:21 36.50215 27.89480 35914 ft 452 kts 319°
2026-04-26 12:22 36.54808 27.84145 35909 ft 451 kts 319°
2026-04-26 12:22 36.59399 27.78816 35913 ft 451 kts 319°
2026-04-26 12:23 36.63958 27.73515 35918 ft 450 kts 319°
2026-04-26 12:23 36.68527 27.68191 35923 ft 450 kts 319°
2026-04-26 12:24 36.73095 27.62858 35928 ft 449 kts 319°
2026-04-26 12:24 36.77660 27.57520 35931 ft 449 kts 319°
2026-04-26 12:25 36.84468 27.49541 35934 ft 448 kts 319°
2026-04-26 12:25 36.89013 27.44203 35937 ft 448 kts 319°
2026-04-26 12:26 36.93553 27.38862 35944 ft 447 kts 319°
2026-04-26 12:26 36.98052 27.33560 35941 ft 447 kts 319°
2026-04-26 12:27 37.02580 27.28215 35945 ft 447 kts 319°
2026-04-26 12:27 37.07110 27.22858 35943 ft 447 kts 319°
2026-04-26 12:28 37.11610 27.17528 35946 ft 447 kts 319°
2026-04-26 12:28 37.16127 27.12168 35946 ft 447 kts 319°
2026-04-26 12:29 37.20646 27.06796 35947 ft 447 kts 319°
2026-04-26 12:30 37.27405 26.98744 35954 ft 446 kts 319°
2026-04-26 12:30 37.31901 26.93376 35960 ft 445 kts 319°
2026-04-26 12:31 37.38601 26.85360 35952 ft 445 kts 319°
2026-04-26 12:31 37.43179 26.80142 35955 ft 443 kts 322°
2026-04-26 12:32 37.47881 26.75148 35950 ft 442 kts 323°
2026-04-26 12:33 37.54882 26.67660 35956 ft 441 kts 322°
2026-04-26 12:33 37.59533 26.62629 35954 ft 440 kts 322°
2026-04-26 12:34 37.64171 26.57601 35963 ft 439 kts 322°
2026-04-26 12:34 37.68798 26.52579 35968 ft 438 kts 322°
2026-04-26 12:35 37.73410 26.47550 35975 ft 438 kts 322°
2026-04-26 12:35 37.78024 26.42502 35981 ft 437 kts 322°
2026-04-26 12:36 37.82590 26.37501 35983 ft 437 kts 322°
2026-04-26 12:36 37.87176 26.32472 35985 ft 436 kts 322°
2026-04-26 12:37 37.91767 26.27445 35987 ft 436 kts 322°
2026-04-26 12:37 37.96352 26.22421 35987 ft 436 kts 322°
2026-04-26 12:38 38.00932 26.17389 35990 ft 435 kts 321°
2026-04-26 12:38 38.05517 26.12346 35990 ft 435 kts 321°
2026-04-26 12:39 38.10065 26.07336 35993 ft 435 kts 321°
2026-04-26 12:39 38.14640 26.02289 35993 ft 435 kts 321°
2026-04-26 12:40 38.19208 25.97239 35992 ft 435 kts 321°
2026-04-26 12:40 38.23744 25.92217 35993 ft 434 kts 321°
2026-04-26 12:41 38.27643 25.88109 36003 ft 433 kts 324°
2026-04-26 12:41 38.32439 25.83523 35997 ft 433 kts 325°
2026-04-26 12:42 38.37231 25.78880 36010 ft 433 kts 324°
2026-04-26 12:42 38.41992 25.74182 36011 ft 432 kts 324°
2026-04-26 12:43 38.46752 25.69486 36016 ft 432 kts 324°
2026-04-26 12:43 38.51527 25.64822 36016 ft 432 kts 324°
2026-04-26 12:44 38.56303 25.60156 36015 ft 432 kts 324°
2026-04-26 12:44 38.61077 25.55479 36025 ft 432 kts 324°
2026-04-26 12:45 38.65819 25.50820 36014 ft 432 kts 324°
2026-04-26 12:45 38.70592 25.46122 36019 ft 432 kts 324°
2026-04-26 12:46 38.75363 25.41418 36014 ft 432 kts 324°
2026-04-26 12:46 38.80100 25.36740 36017 ft 432 kts 323°
2026-04-26 12:47 38.84866 25.32024 36019 ft 432 kts 323°
2026-04-26 12:47 38.89631 25.27301 36028 ft 432 kts 323°
2026-04-26 12:48 38.94397 25.22570 36026 ft 432 kts 323°
2026-04-26 12:48 38.99156 25.17836 36029 ft 432 kts 323°
2026-04-26 12:49 39.03888 25.13122 36022 ft 432 kts 323°
2026-04-26 12:49 39.08644 25.08375 36028 ft 432 kts 323°
2026-04-26 12:50 39.13397 25.03623 36020 ft 432 kts 323°
2026-04-26 12:50 39.18145 24.98866 36022 ft 432 kts 323°
2026-04-26 12:51 39.22885 24.94111 36031 ft 431 kts 323°
2026-04-26 12:51 39.27616 24.89350 36021 ft 431 kts 322°
2026-04-26 12:52 39.32350 24.84576 36020 ft 431 kts 322°
2026-04-26 12:52 39.37037 24.79841 36011 ft 430 kts 322°
2026-04-26 12:53 39.41752 24.75069 36028 ft 430 kts 322°
2026-04-26 12:53 39.46459 24.70298 36027 ft 429 kts 322°
2026-04-26 12:54 39.51153 24.65532 36023 ft 429 kts 322°
2026-04-26 12:54 39.55841 24.60762 36026 ft 428 kts 322°
2026-04-26 12:55 39.60525 24.55988 36026 ft 427 kts 322°
2026-04-26 12:55 39.65198 24.51214 36017 ft 427 kts 321°
2026-04-26 12:56 39.69835 24.46470 36012 ft 427 kts 321°
2026-04-26 12:56 39.74494 24.41694 36026 ft 426 kts 321°
2026-04-26 12:57 39.79143 24.36920 36022 ft 426 kts 321°
2026-04-26 12:57 39.83790 24.32141 36019 ft 425 kts 321°
2026-04-26 12:58 39.90746 24.24969 36015 ft 425 kts 321°
2026-04-26 12:58 39.95375 24.20186 36013 ft 425 kts 321°
2026-04-26 12:59 40.00002 24.15397 36009 ft 425 kts 321°
2026-04-26 12:59 40.04629 24.10599 36016 ft 424 kts 321°
2026-04-26 13:00 40.09227 24.05823 36007 ft 424 kts 321°
2026-04-26 13:00 40.13848 24.01014 36007 ft 425 kts 320°
2026-04-26 13:01 40.18472 23.96193 36010 ft 425 kts 320°
2026-04-26 13:01 40.23092 23.91368 36013 ft 425 kts 320°
2026-04-26 13:02 40.27712 23.86534 36009 ft 425 kts 320°
2026-04-26 13:02 40.32330 23.81694 36005 ft 425 kts 320°
2026-04-26 13:03 40.36911 23.76884 35999 ft 425 kts 320°
2026-04-26 13:03 40.41518 23.72038 36005 ft 424 kts 320°
2026-04-26 13:04 40.46130 23.67177 35995 ft 425 kts 320°
2026-04-26 13:04 40.50733 23.62318 35999 ft 425 kts 320°
2026-04-26 13:05 40.55335 23.57450 35994 ft 424 kts 320°
2026-04-26 13:05 40.59935 23.52576 35983 ft 424 kts 320°
2026-04-26 13:06 40.64525 23.47703 35991 ft 424 kts 319°
2026-04-26 13:06 40.69082 23.42857 35980 ft 423 kts 319°
2026-04-26 13:07 40.73658 23.37981 35993 ft 422 kts 319°
2026-04-26 13:07 40.78224 23.33107 35977 ft 422 kts 319°
2026-04-26 13:08 40.82779 23.28236 35982 ft 421 kts 319°
2026-04-26 13:08 40.87333 23.23358 35980 ft 421 kts 319°
2026-04-26 13:09 40.91883 23.18477 35983 ft 421 kts 319°
2026-04-26 13:09 40.96410 23.13624 35981 ft 421 kts 319°
2026-04-26 13:10 41.00964 23.08731 35988 ft 421 kts 319°
2026-04-26 13:10 41.05512 23.03836 35986 ft 422 kts 319°
2026-04-26 13:11 41.10023 22.98855 35981 ft 421 kts 314°
2026-04-26 13:11 41.13851 22.93014 35992 ft 420 kts 308°
2026-04-26 13:12 41.17581 22.87048 35987 ft 420 kts 309°
2026-04-26 13:12 41.21347 22.81094 35997 ft 420 kts 309°
2026-04-26 13:13 41.25059 22.75160 35988 ft 420 kts 305°
2026-04-26 13:13 41.28363 22.68767 36002 ft 419 kts 303°
2026-04-26 13:14 41.31567 22.62288 35995 ft 419 kts 302°
2026-04-26 13:14 41.34783 22.55804 35995 ft 420 kts 303°
2026-04-26 13:15 41.38020 22.49318 36001 ft 420 kts 303°
2026-04-26 13:15 41.40719 22.43919 35995 ft 420 kts 303°
2026-04-26 13:16 41.44487 22.36371 36008 ft 420 kts 303°
2026-04-26 13:16 41.47723 22.29875 36009 ft 420 kts 302°
2026-04-26 13:17 41.52568 22.20121 36001 ft 420 kts 302°
2026-04-26 13:18 41.57404 22.10353 36012 ft 420 kts 302°
2026-04-26 13:19 41.62225 22.00584 36016 ft 419 kts 302°
2026-04-26 13:19 41.65409 21.94116 36010 ft 419 kts 302°
2026-04-26 13:20 41.68609 21.87599 36017 ft 419 kts 302°
2026-04-26 13:20 41.71807 21.81074 36015 ft 419 kts 302°
2026-04-26 13:21 41.75005 21.74534 36017 ft 420 kts 302°
2026-04-26 13:21 41.78202 21.67983 36019 ft 420 kts 302°
2026-04-26 13:22 41.81395 21.61427 36023 ft 420 kts 302°
2026-04-26 13:22 41.84587 21.54856 36016 ft 421 kts 302°
2026-04-26 13:23 41.87780 21.48271 36020 ft 421 kts 302°
2026-04-26 13:23 41.90949 21.41720 36023 ft 422 kts 302°
2026-04-26 13:24 41.94140 21.35110 36021 ft 422 kts 302°
2026-04-26 13:24 41.97331 21.28484 36040 ft 422 kts 302°
2026-04-26 13:25 42.00521 21.21847 36035 ft 423 kts 302°
2026-04-26 13:25 42.03712 21.15193 36056 ft 423 kts 302°
2026-04-26 13:26 42.06884 21.08563 36046 ft 424 kts 302°
2026-04-26 13:26 42.10076 21.01878 36068 ft 424 kts 302°
2026-04-26 13:27 42.13266 20.95181 36052 ft 425 kts 302°
2026-04-26 13:27 42.15915 20.89610 36063 ft 425 kts 302°
2026-04-26 13:28 42.19107 20.82882 36052 ft 425 kts 302°
2026-04-26 13:28 42.22295 20.76146 36055 ft 426 kts 302°
2026-04-26 13:29 42.25479 20.69404 36060 ft 426 kts 302°
2026-04-26 13:29 42.28644 20.62688 36057 ft 426 kts 302°
2026-04-26 13:30 42.31820 20.55933 36060 ft 426 kts 302°
2026-04-26 13:30 42.34998 20.49159 36056 ft 426 kts 302°
2026-04-26 13:31 42.38169 20.42384 36048 ft 426 kts 301°
2026-04-26 13:31 42.41334 20.35607 36058 ft 426 kts 301°
2026-04-26 13:32 42.44499 20.28813 36062 ft 427 kts 301°
2026-04-26 13:32 42.47661 20.22011 36056 ft 427 kts 301°
2026-04-26 13:33 42.50822 20.15195 36065 ft 427 kts 301°
2026-04-26 13:33 42.53965 20.08402 36061 ft 428 kts 301°
2026-04-26 13:34 42.57133 20.01541 36076 ft 429 kts 301°
2026-04-26 13:34 42.60302 19.94661 36071 ft 430 kts 301°
2026-04-26 13:35 42.63475 19.87758 36072 ft 431 kts 301°
2026-04-26 13:35 42.67194 19.81368 36087 ft 433 kts 312°
2026-04-26 13:36 42.71363 19.75447 36068 ft 434 kts 313°
2026-04-26 13:36 42.75547 19.69509 36063 ft 434 kts 312°
2026-04-26 13:37 42.79698 19.63550 36065 ft 434 kts 312°
2026-04-26 13:37 42.83809 19.57606 36070 ft 433 kts 312°
2026-04-26 13:38 42.87942 19.51608 36072 ft 434 kts 312°
2026-04-26 13:38 42.92068 19.45608 36068 ft 433 kts 312°
2026-04-26 13:39 42.96184 19.39611 36071 ft 433 kts 312°
2026-04-26 13:39 43.00300 19.33601 36075 ft 433 kts 312°
2026-04-26 13:40 43.04421 19.27572 36083 ft 433 kts 312°
2026-04-26 13:40 43.08510 19.21578 36077 ft 434 kts 312°
2026-04-26 13:41 43.12622 19.15537 36082 ft 434 kts 312°
2026-04-26 13:41 43.16742 19.09470 36088 ft 435 kts 312°
2026-04-26 13:42 43.20867 19.03384 36083 ft 435 kts 312°
2026-04-26 13:42 43.24989 18.97290 36076 ft 436 kts 312°
2026-04-26 13:43 43.29084 18.91221 36090 ft 436 kts 312°
2026-04-26 13:43 43.33212 18.85092 36083 ft 437 kts 312°
2026-04-26 13:44 43.37337 18.78952 36084 ft 437 kts 312°
2026-04-26 13:44 43.41455 18.72811 36083 ft 436 kts 312°
2026-04-26 13:45 43.45566 18.66668 36082 ft 436 kts 312°
2026-04-26 13:45 43.49674 18.60515 36088 ft 437 kts 312°
2026-04-26 13:46 43.53783 18.54345 36082 ft 437 kts 311°
2026-04-26 13:46 43.57890 18.48168 36093 ft 437 kts 312°
2026-04-26 13:47 43.61971 18.42015 36078 ft 437 kts 311°
2026-04-26 13:47 43.66081 18.35805 36080 ft 438 kts 311°
2026-04-26 13:48 43.70188 18.29587 36073 ft 438 kts 311°
2026-04-26 13:48 43.74292 18.23359 36078 ft 437 kts 311°
2026-04-26 13:49 43.78387 18.17131 36087 ft 438 kts 311°
2026-04-26 13:49 43.82459 18.10925 36080 ft 438 kts 311°
2026-04-26 13:50 43.86545 18.04683 36087 ft 438 kts 311°
2026-04-26 13:50 43.90635 17.98421 36093 ft 438 kts 311°
2026-04-26 13:51 43.94730 17.92138 36103 ft 438 kts 311°
2026-04-26 13:51 43.98798 17.85882 36105 ft 438 kts 311°
2026-04-26 13:52 44.02883 17.79586 36101 ft 438 kts 311°
2026-04-26 13:52 44.06961 17.73285 36113 ft 438 kts 311°
2026-04-26 13:53 44.11038 17.66976 36119 ft 438 kts 311°
2026-04-26 13:53 44.15066 17.60601 36114 ft 439 kts 310°
2026-04-26 13:54 44.19046 17.54150 36120 ft 439 kts 310°
2026-04-26 13:54 44.23023 17.47687 36117 ft 439 kts 310°
2026-04-26 13:55 44.28316 17.39093 36122 ft 438 kts 310°
2026-04-26 13:56 44.34915 17.28359 36116 ft 438 kts 310°
2026-04-26 13:56 44.38879 17.21891 36119 ft 438 kts 310°
2026-04-26 13:57 44.42837 17.15418 36113 ft 438 kts 310°
2026-04-26 13:57 44.46788 17.08941 36112 ft 437 kts 310°
2026-04-26 13:58 44.50731 17.02463 36110 ft 437 kts 310°
2026-04-26 13:58 44.54670 16.95976 36121 ft 437 kts 310°
2026-04-26 13:59 44.58609 16.89475 36117 ft 437 kts 310°
2026-04-26 13:59 44.62520 16.83005 36112 ft 437 kts 310°
2026-04-26 14:00 44.70376 16.69964 36112 ft 437 kts 310°
2026-04-26 14:01 44.74302 16.63425 36116 ft 437 kts 310°
2026-04-26 14:01 44.78216 16.56891 36116 ft 437 kts 309°
2026-04-26 14:02 44.82129 16.50343 36116 ft 437 kts 309°
2026-04-26 14:02 44.86041 16.43783 36112 ft 437 kts 309°
2026-04-26 14:03 44.89938 16.37230 36113 ft 436 kts 309°
2026-04-26 14:03 44.93839 16.30656 36109 ft 436 kts 309°
2026-04-26 14:04 44.97726 16.24092 36113 ft 436 kts 309°
2026-04-26 14:04 45.01608 16.17519 36108 ft 435 kts 309°
2026-04-26 14:05 45.05458 16.10986 36114 ft 435 kts 309°
2026-04-26 14:05 45.09330 16.04400 36110 ft 435 kts 309°
2026-04-26 14:06 45.13198 15.97806 36108 ft 435 kts 309°
2026-04-26 14:06 45.17065 15.91199 36106 ft 435 kts 309°
2026-04-26 14:07 45.20896 15.84637 36106 ft 434 kts 309°
2026-04-26 14:07 45.24742 15.78034 36098 ft 434 kts 309°
2026-04-26 14:08 45.28585 15.71422 36101 ft 434 kts 309°
2026-04-26 14:08 45.32425 15.64798 36100 ft 434 kts 309°
2026-04-26 14:09 45.36263 15.58162 36099 ft 434 kts 309°
2026-04-26 14:09 45.40098 15.51516 36099 ft 435 kts 308°
2026-04-26 14:10 45.43933 15.44855 36098 ft 435 kts 308°
2026-04-26 14:10 45.47765 15.38183 36095 ft 435 kts 308°
2026-04-26 14:11 45.53488 15.28186 36088 ft 435 kts 308°
2026-04-26 14:11 45.57319 15.21477 36099 ft 435 kts 308°
2026-04-26 14:12 45.61144 15.14760 36087 ft 436 kts 308°
2026-04-26 14:12 45.64937 15.08083 36090 ft 435 kts 308°
2026-04-26 14:13 45.70647 14.98003 36093 ft 434 kts 308°
2026-04-26 14:14 45.74442 14.91286 36089 ft 434 kts 308°
2026-04-26 14:14 45.78091 14.84417 36093 ft 433 kts 305°
2026-04-26 14:15 45.81025 14.78598 36080 ft 433 kts 305°
2026-04-26 14:15 45.85117 14.70472 36081 ft 432 kts 305°
2026-04-26 14:16 45.88078 14.64625 36080 ft 432 kts 305°
2026-04-26 14:16 45.91590 14.57701 36090 ft 432 kts 305°
2026-04-26 14:17 45.95125 14.50724 36077 ft 432 kts 305°
2026-04-26 14:17 45.98656 14.43737 36077 ft 432 kts 305°
2026-04-26 14:18 46.02182 14.36741 36081 ft 432 kts 305°
2026-04-26 14:18 46.05706 14.29732 36088 ft 432 kts 305°
2026-04-26 14:19 46.09229 14.22707 36076 ft 432 kts 305°
2026-04-26 14:19 46.12745 14.15680 36078 ft 432 kts 305°
2026-04-26 14:20 46.16257 14.08641 36089 ft 433 kts 304°
2026-04-26 14:20 46.19771 14.01581 36098 ft 433 kts 304°
2026-04-26 14:21 46.23279 13.94516 36102 ft 433 kts 304°
2026-04-26 14:21 46.26789 13.87428 36092 ft 433 kts 304°
2026-04-26 14:22 46.30273 13.80377 36095 ft 433 kts 304°
2026-04-26 14:22 46.33775 13.73270 36088 ft 433 kts 304°
2026-04-26 14:23 46.37271 13.66155 36102 ft 434 kts 304°
2026-04-26 14:23 46.40776 13.59008 36097 ft 435 kts 304°
2026-04-26 14:24 46.44281 13.51840 36100 ft 434 kts 304°
2026-04-26 14:24 46.47769 13.44687 36100 ft 434 kts 304°
2026-04-26 14:25 46.51231 13.37571 36107 ft 434 kts 304°
2026-04-26 14:25 46.54707 13.30409 36101 ft 434 kts 304°
2026-04-26 14:26 46.58177 13.23240 36107 ft 434 kts 304°
2026-04-26 14:26 46.61644 13.16058 36101 ft 433 kts 303°
2026-04-26 14:27 46.65095 13.08891 36107 ft 432 kts 303°
2026-04-26 14:27 46.68546 13.01707 36114 ft 433 kts 303°
2026-04-26 14:28 46.71996 12.94504 36089 ft 433 kts 303°
2026-04-26 14:28 46.75412 12.87357 36097 ft 432 kts 303°
2026-04-26 14:29 46.78852 12.80139 36108 ft 433 kts 303°
2026-04-26 14:29 46.82287 12.72912 36093 ft 433 kts 303°
2026-04-26 14:30 46.85719 12.65673 36124 ft 432 kts 303°
2026-04-26 14:30 46.89115 12.58492 36156 ft 431 kts 303°
2026-04-26 14:31 46.92529 12.51253 36148 ft 433 kts 303°
2026-04-26 14:31 46.95950 12.43980 36143 ft 434 kts 303°
2026-04-26 14:32 46.99373 12.36684 36145 ft 435 kts 303°
2026-04-26 14:32 47.02796 12.29370 36132 ft 435 kts 303°
2026-04-26 14:33 47.06207 12.22062 36147 ft 434 kts 303°
2026-04-26 14:33 47.09609 12.14752 36156 ft 434 kts 303°
2026-04-26 14:34 47.13009 12.07428 36153 ft 434 kts 303°
2026-04-26 14:34 47.16383 12.00140 36152 ft 433 kts 303°
2026-04-26 14:35 47.19766 11.92816 36148 ft 432 kts 302°
2026-04-26 14:35 47.23223 11.85584 36137 ft 432 kts 305°
2026-04-26 14:36 47.26862 11.78550 36152 ft 431 kts 306°
2026-04-26 14:36 47.30501 11.71556 36141 ft 430 kts 306°
2026-04-26 14:37 47.34114 11.64541 36133 ft 429 kts 305°
2026-04-26 14:37 47.37681 11.57559 36136 ft 429 kts 305°
2026-04-26 14:38 47.41291 11.50466 36146 ft 430 kts 305°
2026-04-26 14:38 47.44880 11.43393 36121 ft 430 kts 305°
2026-04-26 14:39 47.48436 11.36370 36128 ft 429 kts 304°
2026-04-26 14:39 47.52008 11.29297 36155 ft 429 kts 304°
2026-04-26 14:40 47.55579 11.22207 36161 ft 429 kts 304°
2026-04-26 14:40 47.59145 11.15110 36173 ft 430 kts 304°
2026-04-26 14:41 47.62722 11.07972 36185 ft 431 kts 304°
2026-04-26 14:41 47.66287 11.00838 36203 ft 430 kts 304°
2026-04-26 14:42 47.69855 10.93682 36209 ft 430 kts 304°
2026-04-26 14:42 47.73385 10.86582 36209 ft 430 kts 304°
2026-04-26 14:43 47.76933 10.79428 36217 ft 429 kts 304°
2026-04-26 14:43 47.80473 10.72271 36215 ft 429 kts 304°
2026-04-26 14:44 47.84003 10.65116 36208 ft 429 kts 304°
2026-04-26 14:44 47.87525 10.57958 36207 ft 428 kts 304°
2026-04-26 14:45 47.91017 10.50842 36208 ft 428 kts 304°
2026-04-26 14:45 47.94533 10.43659 36211 ft 428 kts 304°
2026-04-26 14:46 47.98034 10.36485 36214 ft 428 kts 304°
2026-04-26 14:46 48.01536 10.29294 36215 ft 428 kts 304°
2026-04-26 14:47 48.05037 10.22085 36209 ft 428 kts 304°
2026-04-26 14:47 48.08528 10.14875 36217 ft 428 kts 304°
2026-04-26 14:48 48.12026 10.07633 36210 ft 429 kts 304°
2026-04-26 14:48 48.15498 10.00425 36218 ft 429 kts 304°
2026-04-26 14:49 48.18993 9.93152 36208 ft 430 kts 304°
2026-04-26 14:49 48.22483 9.85868 36215 ft 430 kts 304°
2026-04-26 14:50 48.25975 9.78560 36209 ft 431 kts 304°
2026-04-26 14:50 48.29462 9.71244 36214 ft 431 kts 304°
2026-04-26 14:51 48.32957 9.63915 36204 ft 432 kts 306°
2026-04-26 14:51 48.37191 9.57473 36214 ft 435 kts 317°
2026-04-26 14:52 48.41812 9.51660 36202 ft 436 kts 318°
2026-04-26 14:52 48.46450 9.45772 36207 ft 436 kts 317°
2026-04-26 14:53 48.51063 9.39826 36206 ft 437 kts 317°
2026-04-26 14:53 48.55685 9.33840 36206 ft 437 kts 317°
2026-04-26 14:54 48.60292 9.27838 36210 ft 436 kts 315°
2026-04-26 14:54 48.64102 9.20796 36218 ft 433 kts 302°
2026-04-26 14:55 48.67303 9.13156 36208 ft 432 kts 301°
2026-04-26 14:55 48.70511 9.05466 36209 ft 431 kts 301°
2026-04-26 14:56 48.73734 8.97792 36212 ft 431 kts 301°
2026-04-26 14:56 48.76964 8.90122 36201 ft 431 kts 301°
2026-04-26 14:57 48.80188 8.82454 36208 ft 431 kts 301°
2026-04-26 14:57 48.83411 8.74770 36207 ft 431 kts 301°
2026-04-26 14:58 48.86604 8.67132 36214 ft 431 kts 301°
2026-04-26 14:58 48.89817 8.59424 36213 ft 432 kts 301°
2026-04-26 14:59 48.93030 8.51692 36206 ft 433 kts 301°
2026-04-26 14:59 48.96238 8.43952 36213 ft 433 kts 301°
2026-04-26 15:00 48.99448 8.36183 36211 ft 433 kts 301°
2026-04-26 15:00 49.01059 8.32276 35843 ft 439 kts 301°
2026-04-26 15:00 49.02684 8.28328 35274 ft 439 kts 301°
2026-04-26 15:00 49.04306 8.24382 34609 ft 438 kts 301°
2026-04-26 15:01 49.05925 8.20440 33891 ft 439 kts 301°
2026-04-26 15:01 49.07542 8.16493 33303 ft 436 kts 301°
2026-04-26 15:01 49.09138 8.12595 32788 ft 431 kts 301°
2026-04-26 15:01 49.10718 8.08728 32311 ft 427 kts 302°
2026-04-26 15:02 49.12281 8.04899 31812 ft 423 kts 302°
2026-04-26 15:02 49.13824 8.01111 31338 ft 419 kts 302°
2026-04-26 15:02 49.14840 7.98615 31017 ft 416 kts 302°
2026-04-26 15:02 49.16358 7.94882 30562 ft 413 kts 302°
2026-04-26 15:03 49.17870 7.91158 30069 ft 409 kts 302°
2026-04-26 15:03 49.19363 7.87473 29535 ft 405 kts 302°
2026-04-26 15:03 49.20837 7.83832 29056 ft 400 kts 302°
2026-04-26 15:03 49.22294 7.80230 28594 ft 396 kts 302°
2026-04-26 15:04 49.23735 7.76661 28113 ft 392 kts 302°
2026-04-26 15:04 49.25160 7.73125 27635 ft 388 kts 302°
2026-04-26 15:04 49.26571 7.69622 27184 ft 385 kts 302°
2026-04-26 15:04 49.27968 7.66148 26707 ft 382 kts 302°
2026-04-26 15:05 49.29354 7.62697 26257 ft 379 kts 302°
2026-04-26 15:05 49.30270 7.60414 25948 ft 377 kts 302°
2026-04-26 15:05 49.32102 7.55842 25339 ft 374 kts 302°
2026-04-26 15:05 49.33457 7.52453 24898 ft 372 kts 302°
2026-04-26 15:06 49.34808 7.49075 24455 ft 371 kts 302°
2026-04-26 15:06 49.36153 7.45703 24007 ft 369 kts 302°
2026-04-26 15:06 49.37490 7.42349 23515 ft 368 kts 302°
2026-04-26 15:06 49.38824 7.38996 23013 ft 366 kts 302°
2026-04-26 15:07 49.41437 7.32420 22126 ft 361 kts 302°
2026-04-26 15:07 49.42737 7.29141 21702 ft 358 kts 302°
2026-04-26 15:07 49.44027 7.25883 21241 ft 356 kts 301°
2026-04-26 15:08 49.45309 7.22643 20826 ft 354 kts 301°
2026-04-26 15:08 49.46584 7.19415 20403 ft 352 kts 301°
2026-04-26 15:08 49.47852 7.16202 19968 ft 350 kts 301°
2026-04-26 15:08 49.49116 7.12995 19546 ft 349 kts 301°
2026-04-26 15:09 49.50352 7.09855 19134 ft 347 kts 301°
2026-04-26 15:09 49.51600 7.06681 18713 ft 346 kts 301°
2026-04-26 15:09 49.52843 7.03517 18261 ft 345 kts 301°
2026-04-26 15:09 49.54081 7.00357 17798 ft 344 kts 301°
2026-04-26 15:10 49.55311 6.97219 17351 ft 342 kts 301°
2026-04-26 15:10 49.56140 6.95099 17050 ft 340 kts 301°
2026-04-26 15:10 49.57750 6.90981 16504 ft 338 kts 301°
2026-04-26 15:10 49.58963 6.87874 16088 ft 337 kts 301°
2026-04-26 15:11 49.60167 6.84784 15668 ft 336 kts 301°
2026-04-26 15:11 49.61366 6.81705 15257 ft 334 kts 301°
2026-04-26 15:11 49.62559 6.78639 14845 ft 333 kts 301°
2026-04-26 15:11 49.63749 6.75575 14430 ft 332 kts 301°
2026-04-26 15:12 49.64936 6.72518 14027 ft 331 kts 302°
2026-04-26 15:12 49.66115 6.69474 13555 ft 331 kts 302°
2026-04-26 15:12 49.67297 6.66422 13124 ft 329 kts 301°
2026-04-26 15:12 49.68471 6.63386 12713 ft 328 kts 301°
2026-04-26 15:13 49.69637 6.60370 12294 ft 326 kts 301°
2026-04-26 15:13 49.70798 6.57359 11891 ft 325 kts 301°
2026-04-26 15:13 49.71953 6.54367 11489 ft 323 kts 302°
2026-04-26 15:13 49.73318 6.51627 11256 ft 319 kts 316°
2026-04-26 15:14 49.74985 6.49485 11217 ft 303 kts 324°
2026-04-26 15:14 49.76668 6.47679 11210 ft 285 kts 326°
2026-04-26 15:14 49.78243 6.46028 11159 ft 270 kts 326°
2026-04-26 15:14 49.79588 6.44051 10840 ft 270 kts 301°
2026-04-26 15:15 49.80188 6.41300 10524 ft 273 kts 275°
2026-04-26 15:15 49.79921 6.38373 10207 ft 281 kts 250°
2026-04-26 15:15 49.79015 6.35661 9879 ft 285 kts 240°
2026-04-26 15:15 49.77974 6.33044 9503 ft 286 kts 239°
2026-04-26 15:16 49.76917 6.30456 9203 ft 281 kts 239°
2026-04-26 15:16 49.75887 6.27926 8931 ft 276 kts 239°
2026-04-26 15:16 49.74880 6.25439 8674 ft 270 kts 239°
2026-04-26 15:16 49.73897 6.22997 8412 ft 266 kts 239°
2026-04-26 15:17 49.72933 6.20592 8155 ft 261 kts 239°
2026-04-26 15:17 49.72303 6.19017 8006 ft 259 kts 239°
2026-04-26 15:17 49.71051 6.15879 7624 ft 255 kts 239°
2026-04-26 15:17 49.70117 6.13541 7321 ft 254 kts 239°
2026-04-26 15:18 49.69193 6.11223 7021 ft 253 kts 239°
2026-04-26 15:18 49.68286 6.08950 6747 ft 251 kts 239°
2026-04-26 15:18 49.67359 6.06628 6369 ft 251 kts 239°
2026-04-26 15:18 49.66454 6.04360 6028 ft 250 kts 239°
2026-04-26 15:19 49.65547 6.02090 5690 ft 249 kts 239°
2026-04-26 15:19 49.64635 5.99816 5321 ft 247 kts 240°
2026-04-26 15:19 49.63730 5.97559 5024 ft 245 kts 240°
2026-04-26 15:19 49.62840 5.95343 4784 ft 241 kts 240°
2026-04-26 15:20 49.61923 5.93228 4546 ft 236 kts 227°
2026-04-26 15:20 49.60578 5.91885 4398 ft 227 kts 197°
2026-04-26 15:20 49.59057 5.91759 4166 ft 215 kts 166°
2026-04-26 15:20 49.57723 5.92614 3989 ft 203 kts 148°
2026-04-26 15:21 49.56471 5.93581 3824 ft 202 kts 155°
2026-04-26 15:21 49.55235 5.94588 3557 ft 199 kts 147°
2026-04-26 15:21 49.54071 5.95657 3524 ft 192 kts 147°
2026-04-26 15:21 49.53205 5.97063 3408 ft 176 kts 105°
2026-04-26 15:22 49.53331 5.98786 3377 ft 162 kts 52°
2026-04-26 15:22 49.54203 5.99863 3574 ft 172 kts 36°
2026-04-26 15:22 49.55029 6.01326 3564 ft 188 kts 57°
2026-04-26 15:22 49.55780 6.02965 3406 ft 179 kts 52°
2026-04-26 15:23 49.56436 6.04424 3309 ft 160 kts 58°
2026-04-26 15:23 49.56990 6.05906 3101 ft 160 kts 60°
2026-04-26 15:23 49.57536 6.07361 2919 ft 154 kts 59°
2026-04-26 15:23 49.58076 6.08803 2701 ft 154 kts 59°
2026-04-26 15:24 49.58603 6.10226 2508 ft 152 kts 59°
2026-04-26 15:24 49.59119 6.11631 2293 ft 149 kts 59°
2026-04-26 15:24 49.59627 6.13005 2103 ft 147 kts 59°
2026-04-26 15:24 49.60124 6.14349 1897 ft 141 kts 60°
2026-04-26 15:25 49.60593 6.15638 1667 ft 139 kts 62°
2026-04-26 15:25 49.60910 6.16519 1613 ft 139 kts 61°
2026-04-26 15:25 49.61570 6.18244 1330 ft 143 kts 60°
2026-04-26 15:25 49.62040 6.19531 1189 ft 128 kts 61°
2026-04-26 15:26 49.62426 6.20569 1231 ft 94 kts 59°
2026-04-26 15:26 49.62651 6.21169 1233 ft 49 kts 60°
2026-04-26 15:26 49.62819 6.21620 1219 ft 47 kts 60°
2026-04-26 15:26 49.62968 6.22014 1213 ft 35 kts 59°
2026-04-26 15:27 49.63117 6.22077 1220 ft 20 kts 329°
2026-04-26 15:27 49.63177 6.21926 1227 ft 13 kts 295°
2026-04-26 15:27 49.63240 6.21860 1228 ft 9 kts 330°
2026-04-26 15:27 49.63290 6.21817 1229 ft 7 kts 330°
2026-04-26 15:28 49.63301 6.21751 1229 ft 7 kts 255°
2026-04-26 15:28 49.63312 6.21720 1229 ft 3 kts 320°
2026-04-26 15:28 49.63335 6.21698 1229 ft 4 kts 329°
2026-04-26 15:28 49.63345 6.21689 1229 ft 0 kts 330°
2026-04-26 15:29 49.63347 6.21687 1229 ft 0 kts 328°